Location: Unspecified
(49.2170°N, 0.0000°E)
Time: 06:29:44
(UTC+00:00)

Vanguard 1 - All Passes

Search period start: 28 January 2021 00:00
Search period end: 07 February 2021 00:00
Orbit: 648 x 3834 km, 34.3° (Epoch: 27 January)

Date Brightness Start Highest point End Pass type
(mag) Time Alt. Az. Time Alt. Az. Time Alt. Az.
28 Jan - 09:01:18 10° SE 09:06:21 12° ESE 09:12:07 10° ESE daylight
28 Jan - 11:12:18 10° SSW 11:25:58 36° SE 11:44:57 10° E daylight
28 Jan - 13:31:11 10° WSW 13:49:02 52° S 14:10:57 10° ESE daylight
28 Jan - 15:53:25 10° W 16:13:43 48° SSW 16:33:42 10° SE daylight
28 Jan - 18:19:10 10° W 18:36:43 29° SW 18:51:46 10° S visible
29 Jan - 09:17:55 10° SSE 09:26:07 17° SE 09:36:34 10° E daylight
29 Jan - 11:32:11 10° SW 11:46:22 41° SSE 12:06:24 10° E daylight
29 Jan - 13:51:48 10° WSW 14:09:56 53° S 14:31:53 10° ESE daylight
29 Jan - 16:14:31 10° W 16:34:29 44° SSW 16:53:56 10° SE daylight
29 Jan - 18:41:23 10° W 18:56:51 23° SW 19:10:25 10° S visible
30 Jan - 09:36:17 10° S 09:46:00 23° SE 09:59:20 10° E daylight
30 Jan - 11:52:19 10° SW 12:06:54 45° SSE 12:27:42 10° E daylight
30 Jan - 14:12:32 10° WSW 14:30:51 52° S 14:52:41 10° ESE daylight
30 Jan - 16:35:44 10° W 16:55:07 40° SSW 17:13:53 10° SSE daylight
30 Jan - 19:04:25 10° W 19:16:52 18° SW 19:28:07 10° SSW visible
31 Jan - 09:55:24 10° S 10:06:02 28° SE 10:21:25 10° E daylight
31 Jan - 12:12:38 10° SW 12:27:36 48° SSE 12:48:54 10° E daylight
31 Jan - 14:33:23 10° WSW 14:51:45 50° S 15:13:21 10° SE daylight
31 Jan - 16:57:07 10° W 17:15:38 35° SW 17:33:31 10° SSE visible
31 Jan - 19:29:33 10° WSW 19:36:46 12° WSW 19:43:35 10° SW visible
01 Feb - 10:14:58 10° SSW 10:26:14 33° SE 10:43:09 10° E daylight
01 Feb - 12:33:05 10° WSW 12:48:22 50° S 13:10:01 10° ESE daylight
01 Feb - 14:54:17 10° W 15:12:38 47° SSW 15:33:49 10° SE daylight
01 Feb - 17:18:48 10° W 17:36:02 29° SW 17:52:43 10° S visible
02 Feb - 08:21:37 10° SSE 08:27:11 14° SE 08:34:04 10° E daylight
02 Feb - 10:34:50 10° SSW 10:46:33 38° SSE 11:04:39 10° E daylight
02 Feb - 12:53:40 10° WSW 13:09:13 51° S 13:31:00 10° ESE daylight
02 Feb - 15:15:18 10° W 15:33:26 44° SSW 15:54:04 10° SE daylight
02 Feb - 17:40:54 10° W 17:56:19 24° SW 18:11:17 10° S visible
03 Feb - 08:39:39 10° S 08:47:03 19° SE 08:57:12 10° E daylight
03 Feb - 10:54:56 10° SW 11:07:03 42° SSE 11:26:01 10° E daylight
03 Feb - 13:14:21 10° WSW 13:30:06 50° S 13:51:52 10° ESE daylight
03 Feb - 15:36:26 10° W 15:54:10 39° SSW 16:14:01 10° SSE daylight
03 Feb - 18:03:49 10° W 18:16:29 18° SW 18:28:54 10° SSW visible
04 Feb - 08:58:39 10° S 09:07:03 24° SE 09:19:25 10° E daylight
04 Feb - 11:15:14 10° SW 11:27:39 45° SSE 11:47:16 10° E daylight
04 Feb - 13:35:06 10° WSW 13:51:00 48° S 14:12:35 10° SE daylight
04 Feb - 15:57:46 10° W 16:14:47 34° SSW 16:33:36 10° SSE daylight
04 Feb - 18:28:42 10° WSW 18:36:34 13° SW 18:44:22 10° SSW visible
05 Feb - 09:18:10 10° SSW 09:27:12 29° SE 09:41:12 10° E daylight
05 Feb - 11:35:39 10° WSW 11:48:21 47° S 12:08:25 10° ESE daylight
05 Feb - 13:55:57 10° W 14:11:52 46° SSW 14:33:05 10° SE daylight
05 Feb - 16:19:22 10° W 16:35:19 29° SW 16:52:44 10° SSE daylight
06 Feb - 07:27:15 10° SE 07:28:49 10° SE 07:30:31 10° ESE daylight
06 Feb - 09:38:01 10° SSW 09:47:29 34° SSE 10:02:45 10° E daylight
06 Feb - 11:56:11 10° WSW 12:09:08 48° S 12:29:28 10° ESE daylight
06 Feb - 14:16:54 10° W 14:32:42 42° SSW 14:53:20 10° SE daylight
06 Feb - 16:41:25 10° W 16:55:45 23° SW 17:11:12 10° S daylight
